Wind_Speed
78 80 80 80 83 83 81 81 76 74 69 71 66 64 64 65 63 58 56 61 63 60 62 62 65 66 64 64 64 63 62 64 63 64 64 64 64 67 72 72 75 75 79 80 79 78 79
83 79 81 79 78 76 75 76 75 70 71 65 62 61 65 63 63 64 63 63 65 60 59 63 64 65 64 63 63 65 66 65 65 66 69 71 68 71 73 77 79 79 79 79 79 80 82
85 82 77 78 79 77 72 70 73 70 63 66 66 64 65 64 63 65 64 63 66 67 66 66 66 67 68 67 68 68 70 69 69 69 69 71 75 74 77 74 75 74 69 67 74 77 79
87 83 83 79 76 77 78 77 71 73 72 72 69 68 65 64 66 67 67 65 68 67 70 69 68 66 67 67 67 69 70 68 71 71 76 75 76 76 74 71 71 74 77 75 77 77 82
89 88 85 84 80 77 78 79 75 76 73 74 74 73 70 69 67 68 67 67 68 71 72 73 73 71 68 71 71 73 73 74 75 78 78 80 80 80 80 74 74 74 72 77 79 82 82
92 92 93 88 87 85 83 79 74 75 77 78 76 73 70 67 72 73 73 71 73 75 74 75 75 73 74 78 80 81 81 85 88 89 88 86 88 89 87 82 75 76 81 76 80 81 87
94 100 98 94 91 86 93 83 84 80 79 82 84 79 78 75 75 74 76 76 78 79 83 81 83 80 76 80 83 85 85 88 90 90 88 89 91 91 88 86 83 86 84 89 91 95 96
104 106 106 103 96 97 93 93 90 91 90 87 88 84 85 82 80 83 83 83 84 86 86 87 88 85 83 84 87 87 86 90 90 90 90 90 93 93 90 89 92 89 97 92 97 99 103
112 112 111 109 106 103 103 100 98 101 101 97 93 91 91 87 89 86 85 85 87 90 89 91 91 92 90 91 91 89 92 93 90 90 91 92 93 94 94 98 94 93 100 99 98 94 100
119 119 116 115 109 110 110 104 107 106 107 102 100 93 94 95 95 91 90 90 90 92 95 94 93 91 93 95 95 92 88 88 89 89 92 94 96 96 99 100 99 90 97 100 94 104 107
118 119 118 119 115 115 117 116 112 112 109 106 112 101 98 101 102 99 97 96 97 95 98 99 95 95 96 98 95 92 89 90 90 90 92 98 100 101 102 102 97 96 99 97 91 91 92
97 101 110 113 115 118 119 118 120 116 116 116 116 112 105 102 106 102 102 100 102 101 99 100 98 95 94 89 87 88 89 92 95 96 97 101 103 104 98 101 99 94 85 85 81 79 80
77 77 84 89 95 101 109 114 120 121 118 114 111 110 104 104 108 96 101 102 105 101 100 98 96 90 83 82 86 89 89 91 92 92 96 102 106 100 84 96 93 80 76 73 70 66 64
60 58 64 70 77 82 85 89 98 106 110 103 99 96 99 100 99 94 94 100 100 98 99 94 92 87 80 80 82 85 88 89 90 92 95 98 107 99 86 86 76 68 63 61 58 51 46
51 49 50 47 58 68 70 76 84 90 88 88 88 92 91 94 89 93 90 94 92 91 88 84 84 79 75 76 82 82 81 85 89 93 98 98 93 82 84 75 63 58 53 50 45 39 33
46 46 49 45 42 47 59 64 72 77 78 82 84 84 83 85 86 86 85 85 83 81 83 81 77 77 74 74 73 74 78 82 88 94 94 91 85 77 65 59 53 52 47 43 35 29 26
57 56 55 50 42 46 49 53 53 60 63 71 77 82 80 75 76 76 78 76 78 76 75 73 67 64 66 64 70 77 80 84 90 94 89 86 77 72 60 50 44 44 38 33 25 23 21
59 68 66 57 49 43 45 44 48 51 55 63 70 68 66 67 65 73 77 78 77 78 74 68 67 63 62 58 62 68 75 81 86 90 91 73 73 63 51 45 39 34 25 24 21 19 17
64 62 70 69 58 55 52 55 54 52 47 48 49 50 56 64 69 70 68 65 66 63 62 61 65 60 58 60 65 69 73 79 83 81 79 69 57 51 45 36 30 24 18 19 18 20 18
64 65 75 70 67 66 59 61 60 56 52 47 50 54 57 57 60 63 63 53 53 58 62 60 56 54 56 61 60 63 68 74 73 70 67 53 44 43 39 26 24 17 17 18 22 23 23
68 68 71 69 69 66 60 61 60 57 52 47 47 53 57 55 49 48 51 54 55 55 52 50 46 50 50 52 57 58 61 61 57 55 53 44 41 40 32 20 22 17 19 21 24 27 28
68 72 71 71 68 66 59 59 60 57 55 53 49 45 46 49 51 49 46 43 44 44 43 46 45 48 49 52 50 55 53 51 48 46 45 37 37 35 29 19 24 20 26 28 28 32 36
73 75 71 63 69 64 65 60 57 54 47 50 48 48 49 47 44 42 46 46 47 45 46 44 45 49 50 48 51 50 50 45 43 42 39 34 31 28 27 18 24 22 28 35 35 38 39
71 72 76 71 65 68 68 65 63 55 54 50 44 44 47 47 48 49 46 45 46 45 45 43 47 45 47 49 47 48 44 39 38 36 38 33 29 26 22 18 21 21 29 41 38 44 43
72 72 71 76 73 66 65 64 59 54 53 44 43 41 42 41 39 42 42 42 37 40 40 39 40 44 45 49 45 46 40 35 34 32 34 31 26 24 20 17 16 24 29 43 46 43 44
69 69 68 73 72 70 59 51 52 50 52 40 41 39 35 33 36 34 32 30 34 35 35 41 44 47 47 48 46 42 39 34 31 32 32 31 25 23 21 19 17 22 29 40 51 50 49
67 68 67 69 71 71 63 57 55 52 46 41 40 42 38 32 30 31 30 31 33 35 40 44 47 48 52 47 41 38 36 34 31 28 31 29 25 22 22 20 21 20 28 35 48 55 53
65 67 65 67 66 62 63 62 51 49 49 46 45 44 39 37 36 35 33 33 37 39 40 44 47 47 43 41 39 38 35 35 32 29 27 27 26 23 23 23 22 23 25 34 38 53 56
67 68 65 62 60 57 59 66 56 51 50 49 41 40 41 41 36 36 36 38 39 42 45 43 43 42 44 40 39 38 36 36 33 30 26 24 25 25 25 26 26 25 26 30 38 44 56
Wind_Direction
260 265 263 265 264 264 265 267 264 264 263 264 265 264 265 268 267 265 259 261 265 262 260 261 261 262 261 262 262 261 268 272 275 269 275 270 275 274 275 276 273 271 269 266 263 263 264
265 267 268 265 266 263 263 261 261 259 261 257 259 259 263 264 264 265 259 261 263 258 258 259 260 261 263 266 260 264 270 270 271 272 270 277 279 280 277 276 272 271 269 267 267 266 264
268 262 267 264 268 265 261 258 259 257 256 257 257 260 262 262 261 262 261 258 259 258 258 259 259 261 261 265 264 268 270 270 271 273 273 275 281 282 279 276 270 272 270 272 270 268 268
266 263 263 264 264 265 263 259 258 260 257 258 258 258 261 263 262 257 258 256 256 258 258 260 262 262 262 264 267 268 270 272 273 273 276 278 282 281 280 276 273 273 274 271 274 273 273
264 262 261 261 262 262 263 261 259 259 258 256 255 259 261 263 264 263 260 258 257 258 258 261 264 268 268 267 268 270 274 277 276 276 277 280 283 283 286 277 269 267 273 268 264 271 273
263 263 263 261 259 263 264 260 260 260 261 258 256 254 259 262 264 265 265 266 262 260 263 262 265 267 269 270 271 274 277 277 277 278 280 283 284 284 286 286 278 276 279 279 283 279 276
260 262 265 261 256 261 265 262 260 261 262 262 261 258 256 258 259 260 262 265 265 264 265 266 266 269 271 274 274 275 276 278 281 282 284 285 284 285 285 289 289 288 287 285 283 282 274
261 259 260 262 254 260 261 262 261 262 263 264 262 261 259 260 258 259 259 261 264 265 266 268 269 270 271 274 276 278 281 282 281 281 281 281 283 286 287 287 287 288 286 286 285 284 272
260 259 257 258 256 258 259 261 262 264 264 265 264 266 261 261 259 257 260 262 264 265 265 268 270 272 274 275 277 282 281 281 281 281 283 284 284 285 287 288 291 291 289 292 292 283 277
259 257 255 255 255 257 257 259 259 259 260 263 265 264 262 263 261 256 258 262 265 266 268 269 270 272 275 278 283 285 283 281 281 282 284 284 286 288 291 295 295 295 298 298 289 277 276
257 256 254 254 254 253 255 255 256 255 257 261 263 264 263 262 262 262 257 262 264 267 270 270 275 279 279 281 284 284 282 283 283 284 285 286 288 291 295 297 300 303 300 295 284 283 283
258 256 254 254 252 252 253 255 252 255 256 259 263 265 262 261 259 260 263 262 264 266 269 271 273 276 278 278 280 280 280 281 284 285 287 288 289 293 297 298 301 298 294 289 288 287 287
257 254 254 252 250 249 252 250 252 253 254 258 257 259 259 256 260 259 263 265 265 267 270 272 275 276 275 276 274 275 278 281 283 286 287 290 291 296 302 301 300 295 294 292 291 290 287
250 247 246 247 246 246 244 246 245 248 250 252 254 253 253 257 259 259 260 262 266 268 270 271 271 273 274 275 276 276 279 283 284 286 286 288 292 298 304 301 296 294 293 293 293 289 288
241 242 242 248 246 240 237 237 239 241 243 245 248 248 249 251 255 257 255 259 264 267 271 270 272 278 276 276 277 280 284 284 285 286 288 289 295 302 305 299 298 297 296 293 287 286 282
219 207 222 236 235 229 230 229 234 234 237 240 242 244 246 248 249 255 258 259 262 263 267 273 274 275 274 280 279 284 285 286 288 289 290 294 303 305 299 297 300 297 295 288 287 289 284
207 207 211 220 223 222 220 224 228 230 232 236 241 243 244 246 247 251 254 256 258 263 266 273 278 282 287 285 282 281 283 285 287 291 295 300 305 304 300 298 300 292 286 285 287 288 278
218 208 205 209 214 220 228 227 230 233 235 240 239 242 242 240 246 252 251 253 258 262 268 274 278 280 286 282 283 282 283 284 289 291 296 301 305 298 300 301 291 281 279 278 277 270 258
215 211 201 209 212 215 222 224 235 237 239 241 238 231 230 236 238 243 254 258 261 266 271 273 278 282 283 279 278 282 286 288 289 294 299 302 297 299 300 295 279 276 273 266 253 240 202
212 213 205 208 213 219 221 227 234 242 243 242 240 236 236 241 244 249 255 258 257 262 269 273 274 280 279 278 281 284 287 289 294 297 298 297 301 299 295 287 269 260 242 237 233 212 187
213 212 213 212 212 220 223 226 233 239 245 248 238 240 244 249 250 250 255 260 262 265 267 270 271 277 279 279 283 287 294 300 299 299 298 301 302 297 287 278 257 244 222 230 221 208 191
215 213 218 213 214 216 220 225 228 235 242 244 241 236 239 235 243 254 255 249 253 255 262 272 277 272 275 280 289 297 299 299 299 297 296 298 296 291 285 272 258 222 209 216 218 204 202
215 218 219 216 213 215 219 224 231 235 239 241 238 239 242 242 244 236 241 252 252 258 268 269 265 270 274 292 297 300 304 302 303 297 295 298 292 283 280 270 260 219 220 211 207 202 199
215 219 220 218 214 218 221 226 231 236 240 236 228 230 237 243 241 243 246 247 255 262 257 261 264 273 290 298 307 305 302 306 303 301 299 299 293 283 278 275 254 225 212 209 211 206 203
216 220 219 221 219 220 226 229 233 231 232 232 229 240 234 233 233 238 241 246 246 250 255 263 273 287 293 304 307 306 304 306 306 302 299 297 295 286 282 277 241 227 215 211 217 217 216
216 217 220 222 223 224 226 221 221 224 227 229 235 230 228 228 229 229 230 237 248 257 268 270 277 290 295 306 305 306 307 306 308 305 302 297 296 287 280 278 253 213 212 215 216 220 220
214 215 217 218 223 223 224 226 222 223 227 235 229 222 221 220 224 228 239 253 261 263 270 277 287 293 300 302 305 305 304 306 304 303 301 296 295 288 283 278 268 244 209 211 216 218 220
212 213 217 221 222 221 223 221 225 226 232 231 223 224 224 224 231 238 250 257 259 266 275 286 290 294 294 303 304 303 303 305 304 300 297 295 294 292 286 277 268 257 232 217 218 223 225
212 213 215 219 221 219 220 223 227 222 218 218 222 225 230 233 238 245 249 254 265 267 279 285 288 292 297 298 300 299 298 304 302 300 294 296 297 293 290 284 273 266 252 231 221 221 226
Height
10625 10627 10628 10631 10632 10634 10635 10637 10639 10641 10640 10643 10645 10646 10646 10649 10652 10653 10653 10655 10656 10656 10655 10657 10657 10658 10660 10663 10663 10666 10667 10664 10662 10661 10659 10660 10661 10660 10659 10657 10653 10657 10660 10658 10660 10661 10658
10605 10607 10608 10611 10613 10613 10618 10620 10621 10625 10625 10627 10630 10630 10632 10635 10637 10639 10641 10642 10644 10645 10644 10644 10643 10645 10647 10651 10650 10652 10653 10650 10648 10646 10645 10643 10643 10642 10643 10637 10633 10637 10641 10643 10639 10637 10638
10582 10586 10589 10592 10594 10597 10600 10605 10605 10608 10611 10612 10615 10617 10619 10622 10624 10625 10628 10629 10630 10630 10631 10629 10630 10631 10633 10636 10638 10637 10635 10635 10634 10631 10629 10630 10629 10624 10622 10616 10616 10618 10623 10622 10616 10617 10614
10558 10563 10567 10571 10576 10577 10579 10583 10587 10591 10594 10595 10597 10603 10605 10608 10609 10609 10613 10616 10616 10617 10617 10616 10616 10616 10618 10620 10622 10622 10617 10619 10617 10615 10612 10613 10614 10607 10601 10598 10599 10601 10600 10607 10602 10595 10593
10536 10537 10544 10548 10555 10557 10559 10566 10570 10572 10575 10577 10580 10586 10590 10593 10593 10594 10597 10602 10601 10601 10601 10601 10602 10601 10604 10604 10604 10604 10602 10600 10597 10597 10596 10594 10593 10584 10580 10582 10581 10577 10580 10581 10586 10580 10567
10512 10513 10518 10526 10532 10536 10539 10546 10549 10554 10556 10557 10562 10567 10573 10576 10577 10577 10580 10586 10586 10587 10587 10586 10587 10585 10586 10586 10587 10587 10587 10583 10579 10576 10577 10575 10570 10563 10560 10558 10559 10556 10554 10552 10555 10557 10541
10487 10489 10492 10500 10509 10515 10519 10527 10528 10532 10535 10539 10543 10549 10555 10558 10560 10560 10565 10568 10569 10570 10569 10570 10570 10569 10572 10568 10569 10569 10570 10566 10561 10556 10555 10550 10544 10543 10539 10534 10531 10529 10524 10518 10521 10521 10514
10457 10462 10466 10474 10485 10491 10497 10504 10508 10508 10512 10516 10523 10531 10535 10539 10541 10542 10546 10551 10551 10551 10552 10553 10551 10552 10554 10550 10548 10551 10552 10546 10541 10537 10538 10535 10523 10519 10514 10509 10511 10508 10491 10491 10489 10486 10467
10422 10426 10438 10447 10455 10466 10471 10480 10486 10486 10486 10494 10500 10507 10515 10517 10519 10524 10526 10530 10531 10532 10535 10534 10534 10535 10536 10533 10529 10534 10534 10525 10521 10516 10517 10511 10503 10498 10495 10486 10485 10488 10458 10459 10441 10445 10438
10383 10394 10401 10416 10428 10436 10444 10454 10458 10463 10467 10470 10476 10486 10492 10496 10500 10505 10507 10508 10510 10514 10512 10514 10518 10519 10516 10513 10511 10511 10510 10504 10499 10497 10492 10485 10476 10476 10469 10460 10454 10460 10437 10421 10416 10398 10404
10346 10355 10365 10378 10396 10406 10412 10420 10426 10436 10441 10451 10450 10463 10473 10476 10472 10481 10488 10489 10490 10494 10490 10497 10502 10499 10498 10494 10495 10491 10489 10482 10480 10477 10472 10462 10455 10454 10450 10438 10426 10424 10414 10400 10392 10387 10373
10310 10318 10327 10341 10358 10367 10377 10386 10395 10407 10418 10424 10427 10437 10449 10453 10452 10460 10464 10469 10471 10472 10478 10480 10483 10482 10481 10477 10478 10471 10469 10465 10460 10455 10448 10439 10434 10432 10431 10418 10409 10401 10392 10376 10371 10368 10356
10281 10291 10294 10307 10319 10330 10341 10355 10364 10376 10393 10395 10408 10412 10421 10429 10429 10444 10446 10448 10448 10456 10458 10463 10465 10463 10464 10461 10461 10457 10451 10448 10444 10439 10430 10417 10407 10408 10412 10400 10384 10373 10368 10359 10353 10350 10343
10257 10266 10273 10281 10288 10300 10311 10324 10336 10347 10361 10373 10383 10392 10396 10405 10410 10423 10426 10424 10431 10439 10439 10443 10444 10448 10447 10444 10443 10441 10435 10430 10427 10419 10415 10406 10391 10387 10391 10377 10368 10357 10353 10346 10340 10336 10329
10245 10251 10254 10264 10269 10278 10287 10301 10313 10325 10339 10349 10359 10368 10378 10385 10393 10398 10408 10411 10417 10418 10421 10425 10427 10430 10431 10430 10428 10424 10420 10412 10406 10401 10394 10391 10378 10372 10366 10352 10350 10343 10338 10333 10328 10324 10319
10231 10240 10250 10255 10260 10264 10273 10284 10295 10307 10319 10328 10339 10349 10361 10369 10376 10383 10390 10397 10399 10404 10406 10409 10412 10416 10416 10415 10411 10408 10404 10393 10385 10380 10374 10368 10364 10355 10349 10342 10338 10329 10326 10320 10317 10314 10311
10213 10223 10238 10246 10252 10259 10264 10273 10283 10293 10303 10312 10321 10332 10345 10356 10362 10368 10375 10379 10384 10388 10392 10396 10397 10398 10401 10400 10397 10393 10387 10379 10369 10358 10356 10351 10346 10336 10331 10328 10326 10317 10315 10312 10309 10306 10304
10200 10209 10224 10234 10241 10250 10256 10265 10274 10285 10296 10303 10311 10321 10333 10341 10350 10352 10359 10366 10372 10374 10380 10382 10385 10385 10387 10386 10383 10379 10372 10364 10357 10347 10338 10336 10331 10323 10318 10316 10311 10308 10306 10304 10302 10301 10302
10189 10198 10209 10221 10231 10240 10249 10257 10266 10276 10286 10295 10301 10310 10319 10328 10335 10341 10348 10355 10359 10364 10367 10370 10372 10373 10373 10373 10369 10364 10358 10349 10340 10333 10325 10321 10317 10309 10307 10308 10300 10300 10299 10298 10297 10297 10297
10178 10187 10197 10208 10220 10230 10240 10250 10257 10266 10278 10287 10295 10302 10310 10318 10325 10332 10339 10344 10349 10352 10355 10358 10360 10362 10362 10359 10356 10350 10343 10335 10328 10318 10312 10309 10304 10300 10298 10297 10293 10292 10291 10292 10292 10293 10291
10169 10178 10188 10199 10210 10220 10231 10241 10252 10261 10268 10276 10286 10293 10300 10309 10315 10322 10329 10334 10337 10340 10344 10347 10349 10350 10349 10346 10342 10337 10329 10320 10313 10303 10298 10295 10293 10291 10289 10289 10284 10285 10286 10288 10288 10288 10287
10158 10170 10178 10190 10200 10209 10222 10232 10243 10253 10260 10268 10277 10285 10291 10299 10306 10313 10316 10321 10325 10329 10333 10337 10338 10338 10337 10334 10332 10324 10317 10310 10302 10295 10288 10288 10286 10281 10279 10281 10278 10280 10280 10280 10282 10282 10280
10149 10159 10170 10180 10191 10202 10214 10225 10231 10241 10253 10258 10267 10275 10283 10289 10296 10302 10306 10311 10316 10320 10323 10326 10328 10327 10325 10323 10318 10311 10305 10297 10290 10283 10279 10279 10277 10273 10269 10272 10270 10274 10275 10274 10277 10277 10277
10139 10150 10162 10172 10185 10196 10207 10215 10223 10235 10243 10251 10260 10267 10272 10279 10286 10291 10296 10301 10307 10311 10313 10317 10317 10316 10314 10310 10303 10299 10294 10287 10281 10274 10269 10269 10267 10265 10263 10265 10266 10268 10270 10270 10271 10271 10273
10127 10139 10152 10165 10178 10188 10196 10207 10218 10228 10236 10244 10252 10258 10262 10269 10275 10281 10288 10293 10299 10302 10305 10306 10305 10305 10303 10298 10292 10287 10282 10279 10273 10267 10262 10261 10260 10257 10256 10258 10262 10261 10265 10265 10265 10268 10270
10117 10129 10142 10156 10168 10177 10190 10200 10211 10219 10228 10238 10243 10248 10254 10260 10266 10273 10280 10287 10290 10292 10294 10294 10294 10294 10291 10286 10282 10276 10271 10268 10265 10260 10256 10253 10253 10251 10250 10250 10253 10257 10258 10261 10262 10263 10264
10107 10120 10133 10145 10155 10170 10183 10193 10203 10213 10221 10228 10233 10239 10247 10255 10261 10268 10274 10277 10279 10282 10284 10283 10282 10281 10278 10275 10271 10267 10265 10261 10258 10256 10250 10247 10246 10245 10243 10244 10245 10247 10250 10252 10254 10256 10257
10097 10111 10122 10134 10148 10161 10174 10185 10197 10206 10213 10219 10225 10233 10242 10249 10255 10260 10264 10267 10270 10272 10274 10273 10271 10270 10268 10264 10260 10258 10255 10252 10250 10248 10245 10241 10240 10238 10237 10236 10237 10239 10243 10242 10245 10247 10249
10088 10101 10114 10126 10138 10152 10164 10178 10188 10197 10204 10212 10219 10227 10234 10240 10246 10250 10254 10258 10261 10263 10264 10262 10260 10259 10257 10254 10252 10249 10246 10244 10243 10241 10239 10236 10233 10231 10230 10229 10229 10231 10233 10237 10237 10239 10240